[[{"header":{"parameterUnit":"m.s-1","parameterCategory":1,"la1":30.2991,"la2":30.254,"lo1":-89.0895,"lo2":-89.0444,"dy":0.0017,"dx":0.0017,"nx":28,"ny":28,"refTime":"2025-05-28T03:00:00:Z","depth":0,"parameterNumber":2,"parameterNumberName":"U-component_of_WINDS"},"data":[0,0,0,0,0,0,0,0,0,0,0,0,0,0,0,0,0,0,0,0,0,0,0,0,0,0,0,0,0,0,0,0,0,0,0,0,0,0,0,0,0,0,0,0,0,0,0,0,0,0,0,0,0,0,0,0,0,0,0.9893,0.9892,0,0.9821,0.982,0.9819,0.9716,0.9714,0.9712,0.9711,0.964,0.964,0.964,0,0,0,0,0,0,0,0,0,0,0,0,0,0.9944,0.9944,0.9893,0.9892,0.9891,0.9821,0.982,0.9819,0.9716,0.9714,0.9712,0.971,0.964,0.964,0.964,0,0,0,0,0,0,0,0,0,0,0,0,0,0.9902,0.9943,0.9893,0.9832,0.9825,0.9821,0.982,0.9819,0.9717,0.9714,0.9711,0.9709,0.964,0.964,0.964,0.9692,0,0,0.9639,0.9639,0,0,0,0,0,0,0,0,0.9905,0.99,0.9842,0.9836,0.9829,0.9775,0.9812,0.9777,0.9717,0.9758,0.9711,0.9708,0.9687,0.9683,0.9676,0.9688,0.9685,0.9639,0.9639,0.9638,0.9638,0,0,0,0,0,0,0,0.9908,0.9903,0.9865,0.9841,0.9833,0.9808,0.9799,0.9805,0.9739,0.9754,0.9747,0.9739,0.9683,0.9676,0.9673,0.9684,0.9639,0.9639,0.9638,0.9638,0.9734,0.9737,0,0,0,0,0,0,0.9919,0.9906,0.9867,0.9863,0.9861,0.9809,0.9799,0.9795,0.9738,0.9727,0.9742,0.9735,0.9678,0.9674,0.967,0.9726,0.9639,0.9638,0.9638,0.9732,0.9735,0.9738,0,0,0,0,0,0,0.9921,0.9917,0.987,0.9882,0.9874,0.9811,0.9807,0.9795,0.9787,0.9729,0.9717,0.9746,0.9676,0.9671,0.9686,0.9722,0.9638,0.9638,0.9729,0.9733,0.9737,0.9838,0,0,0,0,0,0,0.9923,0.9918,0.9937,0.9883,0.9874,0.9887,0.9809,0.9795,0.9787,0.9777,0.973,0.972,0.9673,0.9688,0.9686,0.972,0.9638,0.9725,0.973,0.9735,0.9832,0.9845,0.9857,0,0,0,0,0,0.9925,0.9969,0.9938,0.9934,0.9896,0.9889,0.9884,0.9829,0.979,0.9808,0.977,0.9721,0.9719,0.969,0.9688,0.9722,0.9723,0.9729,0.9735,0.9826,0.9843,0.9857,0,0,0,0,0,0,1.003,0.9961,0.9926,0.9954,0.9928,0.9872,0.9893,0.9849,0.9834,0.9826,0.9759,0.9749,0.9773,0.9749,0.9719,0.9768,0.9713,0.9719,0.9783,0.9798,0.9811,0.9816,0.9637,0,0,0,0,0,1.0056,1.0056,0.9996,1.0027,1.0016,0.9957,0.9952,0.9912,0.9883,0.9871,0.9835,0.9809,0.9802,0.9799,0.979,0.9828,0.9816,0.985,0.9863,0.9874,0.988,0.9896,0.9911,0.9758,0.9758,0.9758,0,0,1.0111,1.0073,1.0077,1.0047,1.0022,1.0023,0.9949,0.9954,0.9954,0.9872,0.9884,0.9857,0.9824,0.985,0.986,0.9831,0.9919,0.9882,0.9891,0.9891,0.9904,0.9919,0.9932,0.9762,0.9762,0.9761,0,0,1.021,1.0183,1.0204,1.018,1.0143,1.0103,1.0109,1.0059,1.0037,1.0048,0.9986,0.9986,0.9976,0.9954,0.9942,1.0033,0.9986,1.0032,1.0099,1.0116,1.0128,1.0138,1.0169,1.0181,1.0038,1.0038,1.0039,0,1.0283,1.0282,1.0221,1.0229,1.0217,1.0142,1.0164,1.0144,1.0107,1.01,1.0068,1.0052,1.0025,1.0045,1.0067,1.006,1.0064,1.0037,1.0131,1.0141,1.015,1.0178,1.019,1.0044,1.0043,1.0043,1.0042,0,1.0372,1.0372,1.0394,1.0358,1.0349,1.0364,1.0306,1.0304,1.0265,1.0229,1.024,1.0205,1.0186,1.0188,1.015,1.0202,1.0185,1.0143,1.0086,1.0171,1.0196,1.0207,1.0052,1.005,1.0048,1.0047,0,0,1.0535,1.0464,1.0473,1.0455,1.0408,1.0408,1.0419,1.04,1.0399,1.0376,1.0383,1.0376,1.0336,1.0323,1.0282,1.0297,1.0369,1.0253,1.0251,1.0274,1.0423,1.0453,1.0467,1.0338,1.034,1.0342,1.0425,0,1.0624,1.0639,1.0584,1.0613,1.0612,1.054,1.055,1.0523,1.049,1.0485,1.0449,1.0444,1.0393,1.0383,1.0396,1.0358,1.0398,1.0351,1.0344,1.0345,1.0353,1.0481,1.0514,1.0594,1.0435,1.0436,1.0438,0,1.073,1.0711,1.0739,1.0689,1.0686,1.0696,1.0673,1.0669,1.0637,1.0611,1.0596,1.0548,1.0556,1.0502,1.0512,1.0481,1.0476,1.0457,1.0459,1.0455,1.0396,1.0479,1.0618,1.063,1.0453,1.0452,1.0451,0,1.0844,1.0825,1.0839,1.0826,1.0769,1.0777,1.0754,1.0719,1.071,1.0691,1.0684,1.0667,1.0657,1.0644,1.0593,1.0559,1.0609,1.0551,1.0587,1.0589,1.06,1.06,1.0739,1.0599,1.0599,1.0599,1.0599,0,1.0949,1.0968,1.0889,1.0898,1.0918,1.0855,1.0877,1.0847,1.0816,1.0817,1.0756,1.0759,1.0691,1.0687,1.0647,1.066,1.0657,1.0637,1.0626,1.0641,1.0644,1.0636,1.0628,1.0602,1.0601,1.0601,1.06,0,1.1079,1.1027,1.1037,1.0982,1.0968,1.0985,1.0938,1.0944,1.0906,1.0909,1.0906,1.0849,1.084,1.0788,1.0768,1.0741,1.0768,1.0747,1.0779,1.0771,1.081,1.0807,1.0948,1.0962,1.0815,1.0817,1.0818,0,1.1148,1.1161,1.1107,1.1103,1.1082,1.1077,1.1067,1.1006,1.0999,1.0962,1.0973,1.0959,1.0944,1.0934,1.0891,1.0875,1.0852,1.0902,1.0849,1.0864,1.0851,1.085,1.085,1.0913,1.0915,1.0917,1.0918,0,1.1276,1.1249,1.1237,1.1216,1.1206,1.1187,1.1164,1.1164,1.1097,1.1092,1.1082,1.1071,1.1049,1.1036,1.1013,1.0989,1.0943,1.0935,1.0942,1.0958,1.0975,1.0965,1.0808,1.0932,1.0931,1.093,1.0929,1.0928,1.1376,1.1384,1.1346,1.1335,1.1311,1.1291,1.1293,1.1256,1.1246,1.1223,1.1188,1.1183,1.1149,1.1112,1.1093,1.1088,1.1061,1.1072,1.1074,1.1078,1.1085,1.0977,1.1083,1.1083,1.1082,1.1082,1.1082,0,1.1499,1.1471,1.1461,1.143,1.1421,1.1378,1.135,1.1345,1.1341,1.1313,1.13,1.1288,1.1274,1.123,1.1212,1.1217,1.1195,1.1214,1.1212,1.1207,1.1111,1.1106,1.1232,1.1232,1.1232,1.1232,1.1232,1.1232,1.1562,1.1572,1.1541,1.1539,1.1511,1.1504,1.1492,1.1473,1.145,1.1439,1.1428,1.1398,1.1364,1.1343,1.1329,1.1316,1.1312,1.1338,1.1318,1.1229,1.1214,1.12,1.1195,1.1338,1.1338,1.1414,1.1415,1.1415]},{"header":{"parameterUnit":"m.s-1","parameterCategory":1,"la1":30.2991,"la2":30.254,"lo1":-89.0895,"lo2":-89.0444,"dy":0.0017,"dx":0.0017,"nx":28,"ny":28,"refTime":"2025-05-28T03:00:00:Z","depth":0,"parameterNumber":3,"parameterNumberName":"V-component_of_WINDS"},"data":[0,0,0,0,0,0,0,0,0,0,0,0,0,0,0,0,0,0,0,0,0,0,0,0,0,0,0,0,0,0,0,0,0,0,0,0,0,0,0,0,0,0,0,0,0,0,0,0,0,0,0,0,0,0,0,0,0,0,5.7673,5.7673,0,5.7694,5.7695,5.7695,5.7642,5.7641,5.7639,5.7637,5.7655,5.7657,5.7659,0,0,0,0,0,0,0,0,0,0,0,0,0,5.7584,5.7586,5.7673,5.7673,5.7674,5.7694,5.7695,5.7695,5.7642,5.764,5.7638,5.7637,5.7655,5.7657,5.7659,0,0,0,0,0,0,0,0,0,0,0,0,0,5.7616,5.7587,5.7673,5.765,5.7648,5.7694,5.7695,5.7695,5.7643,5.764,5.7638,5.7636,5.7654,5.7657,5.766,5.7728,0,0,5.7669,5.767,0,0,0,0,0,0,0,0,5.7614,5.7619,5.7653,5.7652,5.765,5.7663,5.767,5.7706,5.7644,5.7645,5.7637,5.7634,5.766,5.7662,5.7671,5.7729,5.7729,5.7669,5.7671,5.7672,5.7673,0,0,0,0,0,0,0,5.7612,5.7618,5.7681,5.7654,5.7652,5.7638,5.7639,5.7676,5.7666,5.7645,5.7641,5.7644,5.7658,5.7669,5.7671,5.773,5.7669,5.7672,5.7674,5.7675,5.7844,5.7846,0,0,0,0,0,0,5.7613,5.7616,5.7681,5.7682,5.7626,5.7641,5.7643,5.7661,5.7665,5.7663,5.7646,5.7642,5.7665,5.7668,5.7672,5.7751,5.7672,5.7675,5.7677,5.7841,5.7844,5.7847,0,0,0,0,0,0,5.7611,5.7619,5.768,5.7648,5.7655,5.7646,5.7666,5.7663,5.7673,5.7667,5.7664,5.7659,5.7663,5.7668,5.7714,5.7751,5.7677,5.7679,5.7838,5.7842,5.7846,5.7911,0,0,0,0,0,0,5.7609,5.7619,5.7645,5.7649,5.7657,5.7723,5.7668,5.7665,5.7679,5.7673,5.7678,5.7676,5.7661,5.771,5.7718,5.7754,5.7682,5.7834,5.784,5.7844,5.7905,5.7916,5.7926,0,0,0,0,0,5.7606,5.7662,5.7647,5.7655,5.769,5.7725,5.773,5.7712,5.7682,5.7708,5.7704,5.7676,5.7746,5.7716,5.7723,5.7761,5.7832,5.7838,5.7844,5.79,5.7914,5.7926,0,0,0,0,0,0,5.7661,5.7662,5.7645,5.7705,5.7716,5.7717,5.7748,5.7727,5.7746,5.774,5.7716,5.7718,5.7769,5.777,5.7735,5.7827,5.7784,5.7792,5.7824,5.7837,5.7847,5.7845,5.7684,0,0,0,0,0,5.768,5.771,5.7709,5.7761,5.7768,5.7758,5.7773,5.7759,5.7768,5.7772,5.7771,5.7781,5.7805,5.7821,5.7843,5.7906,5.7905,5.7936,5.7946,5.7955,5.7961,5.7993,5.8006,5.7867,5.7867,5.7867,0,0,5.7719,5.7724,5.7744,5.7773,5.7779,5.781,5.7762,5.7796,5.7818,5.7777,5.7821,5.7821,5.7831,5.7886,5.791,5.7888,5.8,5.7962,5.7969,5.7971,5.8001,5.8014,5.8026,5.7871,5.787,5.787,0,0,5.7806,5.7814,5.7858,5.7866,5.7878,5.7871,5.7882,5.7887,5.7885,5.793,5.79,5.7926,5.7968,5.7976,5.7985,5.8077,5.8052,5.8085,5.8139,5.817,5.8181,5.8191,5.8223,5.8234,5.8092,5.8092,5.8092,0,5.7853,5.7899,5.7883,5.7919,5.7932,5.7899,5.7943,5.7952,5.7969,5.7979,5.7955,5.8007,5.8011,5.8067,5.809,5.8099,5.811,5.8083,5.8182,5.8191,5.82,5.8229,5.8241,5.8096,5.8096,5.8095,5.8095,0,5.7956,5.7988,5.8022,5.8042,5.8059,5.8099,5.8088,5.8107,5.8093,5.8088,5.8133,5.8138,5.816,5.8172,5.8158,5.8226,5.8212,5.8186,5.8141,5.8217,5.8244,5.8256,5.8102,5.81,5.8099,5.8098,0,0,5.8075,5.8087,5.81,5.8108,5.812,5.8144,5.8182,5.8206,5.8222,5.8236,5.8267,5.8305,5.828,5.8291,5.8277,5.8305,5.8377,5.8275,5.8275,5.8292,5.8452,5.847,5.8484,5.8361,5.8363,5.8365,5.845,0,5.816,5.8228,5.8215,5.828,5.8309,5.8279,5.8312,5.8323,5.832,5.8344,5.834,5.8367,5.8333,5.8339,5.8366,5.8363,5.8408,5.8356,5.8388,5.8389,5.8385,5.8499,5.8518,5.8598,5.8461,5.8463,5.8464,0,5.8267,5.8287,5.8356,5.8364,5.8375,5.8406,5.8426,5.845,5.8461,5.8456,5.847,5.8451,5.8488,5.8446,5.8496,5.8462,5.8474,5.8474,5.8477,5.8478,5.843,5.85,5.8624,5.8635,5.8481,5.848,5.8479,0,5.8346,5.839,5.8437,5.8445,5.8455,5.8477,5.8482,5.8491,5.8506,5.8524,5.8533,5.8555,5.8566,5.8583,5.857,5.854,5.8622,5.8579,5.8618,5.8619,5.8635,5.8633,5.876,5.8646,5.8646,5.8646,5.8646,0,5.8441,5.8484,5.8472,5.8501,5.8548,5.8533,5.8579,5.858,5.8589,5.8616,5.8592,5.8618,5.86,5.8625,5.8615,5.8658,5.8663,5.866,5.8656,5.8661,5.8661,5.8667,5.866,5.8649,5.8648,5.8648,5.8647,0,5.8535,5.8529,5.8578,5.8585,5.8588,5.8622,5.8627,5.8653,5.8649,5.8684,5.8692,5.8686,5.8713,5.8703,5.8732,5.8725,5.8779,5.877,5.8776,5.8773,5.8812,5.8808,5.8945,5.8962,5.884,5.8841,5.8842,0,5.8595,5.8627,5.8638,5.8656,5.8663,5.8692,5.8707,5.8694,5.8711,5.8727,5.8751,5.8777,5.8796,5.8842,5.8839,5.8861,5.885,5.8897,5.8853,5.8857,5.8849,5.8847,5.8849,5.8905,5.8906,5.8908,5.8909,0,5.8701,5.8697,5.8722,5.8746,5.8766,5.8783,5.8799,5.8814,5.8802,5.8822,5.8851,5.8867,5.8897,5.8923,5.8943,5.8946,5.8925,5.8923,5.8933,5.8937,5.8939,5.8937,5.8798,5.8919,5.8918,5.8917,5.8917,5.8916,5.8779,5.8807,5.8819,5.8847,5.8858,5.8873,5.8898,5.8899,5.8923,5.8948,5.8938,5.8971,5.8982,5.9007,5.9014,5.9038,5.902,5.9035,5.9038,5.9042,5.9046,5.8937,5.9042,5.9042,5.9042,5.9041,5.9041,0,5.8883,5.889,5.8916,5.8939,5.8962,5.8942,5.8959,5.8978,5.9008,5.902,5.9041,5.9074,5.9099,5.9099,5.9122,5.9142,5.9133,5.9148,5.9145,5.9146,5.9062,5.905,5.9155,5.9155,5.9155,5.9155,5.9155,5.9155,5.8939,5.8985,5.8983,5.9033,5.904,5.9073,5.9084,5.9097,5.9107,5.9146,5.9167,5.9168,5.9175,5.9199,5.9221,5.922,5.9229,5.9248,5.9243,5.9164,5.9152,5.9142,5.913,5.925,5.925,5.9325,5.9326,5.9327]}]]